Location: Derby
(52.9213°N, 1.4761°W)
Time: 16:15:56
(UTC+01:00)

Vanguard 1 - Pass Details

Date: 24 May 2025
Orbit: 649 x 3822 km, 34.3° (Epoch: 14 June)

Event Time Altitude Azimuth Distance (km) Brightness Sun altitude
Rises 19:36:15 0° 252° (WSW) 7,466 15.5 11.7°
Reaches altitude 10° 19:42:30 10° 244° (WSW) 6,026 14.8 10.8°
Maximum altitude 19:56:22 32° 191° (S) 3,262 12.7 8.9°
Drops below altitude 10° 20:05:00 10° 133° (SE) 3,709 12.5 7.7°
Sets 20:07:49 0° 123° (ESE) 4,343 12.7 7.3°
